Tracking 31027 objects as of 18-Jul-2025
HD Live streaming from Space Station
objects crossing your sky now

CZ-3 R/B

Track CZ-3 R/B now!


NORAD ID: 14900
Int'l Code: 1984-035B
Perigee: 409.5 km
Apogee: 34,677.1 km
Inclination: 30.7 °
Period: 613.4 minutes
Semi major axis: 23914 km
RCS: 9.5793 m2 (large)
Launch date: April 8, 1984
Source: People's Republic of China (PRC)
Launch site: Xichang Space Center, China (XSC)

Note: This is a ROCKET BODY
Your satellite tracking list
Your tracking list is empty




NASA's NSSDC Master Catalog

Two Line Element Set (TLE):
1 14900U 84035B   25197.77212969  .00000007  00000-0  26132-3 0  9995
2 14900  30.7443  87.9835 7164649 177.2216 191.7322  2.34755877283859
Source of the keplerian elements: AFSPC